Location: Arrougou
(32.7322°N, 5.4019°W)
Time: 05:46:38
(UTC+00:00)

Daily predictions for brighter satellites

Satellite Brightness Start Highest point End
(mag) Time Altitude Azimuth Time Altitude Azimuth Time Altitude Azimuth
Cosmos 2237 Rocket 4.4 03:48:54 21° E 03:48:54 21° E 03:51:20 10° ESE
Centaur D AC-28 3.7 04:03:51 49° SSE 04:03:51 49° SSE 04:18:45 10° ESE
CZ-3B R/B 4.2 04:05:08 34° SSW 04:05:08 34° SSW 04:12:45 10° SSE
Meteor 2-6 Rocket 4.4 04:46:08 50° NNE 04:47:31 68° E 04:53:16 10° SSE
FALCON 9 R/B 3.0 04:56:29 54° WSW 04:58:28 89° SSE 05:19:55 10° E
Lacrosse 5 2.9 05:04:54 33° N 05:06:22 41° NE 05:11:08 10° ESE
Cosmos 2251 Rocket 3.8 05:10:03 49° SW 05:10:03 49° SW 05:14:14 10° S
CZ-4C R/B 4.2 05:06:16 11° NNW 05:12:49 37° NE 05:20:18 10° ESE
Meteor 1-27 Rocket 4.2 05:10:01 10° N 05:15:55 63° E 05:21:43 10° SSE
SL-16 R/B 2.7 05:12:45 19° N 05:16:51 58° ENE 05:22:25 10° SE
Cosmos 1891 Rocket 4.4 05:10:32 10° SSW 05:16:56 68° W 05:23:20 10° N
Cosmos 1464 Rocket 3.9 05:15:49 10° SSW 05:21:56 61° W 05:28:03 10° N
GEOS 3 Rocket 3.5 05:18:18 10° SE 05:23:23 83° ENE 05:25:49 32° NNW
OAO 1 4.4 05:23:55 49° WNW 05:25:29 90° NNE 05:31:02 10° ESE
Cosmos 2237 Rocket 2.8 05:30:48 34° WSW 05:30:48 34° WSW 05:35:40 10° SSW
COBE Rocket 3.9 05:28:26 10° S 05:33:18 55° W 05:35:29 30° NW
ALOS 2.6 05:30:14 10° NNE 05:34:53 68° E 05:39:31 10° S
BREEZE-M DEB (TANK) 3.2 05:34:03 36° W 05:35:21 44° WSW 05:38:13 10° SSE
STARLINK-62 4.5 05:34:16 28° N 05:35:52 42° NE 05:39:42 10° ESE
Cosmos 1371 Rocket 4.0 05:30:46 10° SSW 05:35:56 58° WNW 05:41:06 10° N
METEOR-M 4.4 05:31:44 10° NNE 05:37:05 72° ESE 05:42:24 10° S
STARLINK-63 4.5 05:35:45 27° N 05:37:27 42° NE 05:41:16 10° ESE
STARLINK-72 4.4 05:38:48 25° NNW 05:40:39 43° NE 05:44:30 10° ESE
STARLINK-59 4.2 05:42:06 26° NNW 05:44:04 49° NE 05:47:57 10° ESE
STARLINK-55 4.1 05:45:15 25° NNW 05:47:20 52° NE 05:51:16 10° ESE
Cosmos 1933 Rocket 3.5 05:43:19 10° SSW 05:47:35 59° W 05:51:52 10° N
Cosmos 407 Rocket 3.7 05:43:16 10° NNW 05:48:38 74° ENE 05:53:57 10° SSE
STARLINK-28 4.0 05:46:54 24° NNW 05:49:04 55° NE 05:53:00 10° ESE
SJ-12 3.9 05:46:20 10° N 05:50:24 59° WNW 05:54:25 10° SSW
Cosmos 614 Rocket 4.0 05:46:06 10° NNW 05:51:12 82° ENE 05:56:18 10° SSE
PSLV R/B 4.3 05:48:14 10° N 05:52:02 38° WNW 05:55:52 10° SW
Aureole 1 Rocket 4.1 05:48:14 19° NW 05:52:08 51° WSW 05:58:59 10° S
STARLINK-53 3.9 05:50:02 23° NNW 05:52:20 59° NE 05:56:18 10° SE
Cosmos 1484 Rocket 3.4 05:50:16 10° N 05:53:50 34° WNW 05:57:22 10° SW
CZ-4B DEB 4.1 05:48:23 10° N 05:53:52 70° WNW 05:59:22 10° SSW
STARLINK-54 3.8 05:51:42 23° NNW 05:54:03 62° NE 05:58:01 10° SE
STARLINK-34 3.7 05:54:51 22° NW 05:57:20 68° NE 06:01:20 10° SE
Cosmos 1140 Rocket 4.0 05:52:56 10° N 05:58:04 59° ENE 06:03:13 10° SSE
STARLINK-61 3.6 05:57:46 26° WNW 05:59:55 65° SW 06:03:54 10° SSE
STARLINK-81 3.8 05:57:46 20° NW 06:00:28 65° NE 06:04:26 10° SE
Okean 1-7 4.0 05:57:29 10° N 06:01:46 49° E 06:06:00 10° SSE
STARLINK-24 3.6 05:59:37 20° NW 06:02:17 76° NE 06:06:18 10° SE
STARLINK-77 3.7 06:00:57 19° NW 06:03:46 71° NE 06:07:46 10° SE
STARLINK-25 3.6 06:02:09 18° NW 06:05:01 73° NE 06:09:00 10° SE
Cosmos 2263 Rocket 2.2 06:00:28 10° SSW 06:06:03 87° ESE 06:11:39 10° NNE
Nadezhda 4 Rocket 4.0 06:00:01 10° NNW 06:06:04 57° W 06:12:03 10° S
STARLINK-71 3.5 06:04:22 19° NW 06:07:14 87° NE 06:11:15 10° SE
STARLINK-79 3.6 06:05:19 17° NW 06:08:18 79° NE 06:12:18 10° SE
Cosmos 2227 4.2 06:02:53 10° SSW 06:08:33 64° WNW 06:14:17 10° NNE
COSMO-SKYMED 1 2.8 06:04:33 10° S 06:08:43 48° W 06:12:56 10° NNW
STARLINK-78 3.5 06:07:21 17° NW 06:10:24 84° NE 06:14:24 10° SE
STARLINK-57 3.5 06:09:03 17° NW 06:12:08 88° SW 06:16:09 10° SE
STARLINK-49 3.5 06:10:30 16° NW 06:13:41 90° SW 06:17:42 10° SE
Okean O Rocket 1.6 06:09:29 10° N 06:13:46 58° WNW 06:18:05 10° SSW
Gbstr 26 Del rocket 4.3 06:12:52 15° W 06:14:20 18° SW 06:17:00 10° S
STARLINK-27 3.5 06:11:41 15° NW 06:14:54 87° SW 06:18:55 10° SE
Cosmos 1346 Rocket 3.9 06:12:07 10° SSE 06:15:50 47° E 06:19:33 10° NNE
Meteor 1-25 Rocket 4.2 06:11:09 10° SSW 06:16:38 65° W 06:22:14 10° N
STARLINK-74 3.5 06:13:41 15° NW 06:16:59 83° SW 06:21:00 10° SE
STARLINK-39 3.5 06:15:17 14° NW 06:18:39 80° SW 06:22:39 10° SE
Cosmos 2242 Rocket 4.0 06:14:41 10° NNW 06:18:59 43° W 06:23:13 10° SSW
Cosmos 1812 4.2 06:18:30 15° WNW 06:20:02 18° W 06:22:44 10° SW
STARLINK 3.5 06:16:52 14° NW 06:20:17 76° SW 06:24:17 10° SE
PSLV R/B 4.2 06:19:41 16° NW 06:20:28 18° NNW 06:22:19 10° NE
Radarsat Rocket 4.3 06:15:27 10° NNE 06:21:42 87° ESE 06:28:45 10° SSW
STARLINK-42 3.6 06:18:37 14° NW 06:22:03 68° SW 06:26:02 10° SE
STARLINK-21 3.6 06:20:05 13° NW 06:23:37 69° SW 06:27:36 10° SE
STARLINK-75 3.8 06:21:19 13° NW 06:24:50 55° SW 06:28:50 10° SSE
STARLINK-45 3.7 06:21:57 13° NW 06:25:28 57° SW 06:29:24 10° SSE
Cosmos 1461 4.3 06:23:04 10° NNW 06:27:06 39° ENE 06:31:15 10° SE
STARLINK-41 3.7 06:23:22 12° NW 06:27:08 64° SW 06:31:12 10° SSE
STARLINK-76 3.7 06:24:51 12° NW 06:28:34 61° SW 06:32:31 10° SSE
STARLINK-64 3.7 06:24:44 11° NW 06:28:34 61° SW 06:32:37 10° SSE
USA 116 4.2 06:24:53 10° S 06:28:39 46° W 06:32:57 10° NNW
STARLINK-37 3.8 06:25:02 12° NW 06:28:46 56° SW 06:32:47 10° SSE
Cosmos 2026 Rocket 4.0 06:22:43 10° N 06:28:55 89° W 06:35:10 10° S
STARLINK 3.7 06:26:06 11° NW 06:29:51 58° SW 06:33:48 10° SSE
CZ-4B R/B 3.4 06:24:45 10° N 06:30:08 50° WNW 06:35:33 10° SW
Cosmos 2279 Rocket 4.1 06:24:46 10° S 06:30:57 84° E 06:37:10 10° N
Cosmos 1703 Rocket 3.7 06:27:08 10° NNW 06:31:30 56° W 06:35:48 10° S
STARLINK-32 3.8 06:28:01 11° NW 06:31:51 55° SW 06:35:46 10° SSE
SL-24 R/B 4.4 06:26:58 10° SSE 06:31:57 81° ENE 06:36:21 10° N
STARLINK-40 3.8 06:29:37 10° NW 06:33:30 53° SW 06:37:24 10° SSE
Cosmos 1634 Rocket 4.1 06:27:53 10° SSW 06:33:56 53° W 06:39:59 10° N
STARLINK-44 3.9 06:31:14 10° NW 06:35:08 51° SW 06:39:02 10° SSE
IRS-1C Rocket 4.3 06:31:09 10° NNE 06:36:25 78° ESE 06:41:39 10° S
Cosmos 1733 Rocket 4.5 06:32:56 10° SSE 06:37:00 42° E 06:41:05 10° NNE
Cosmos 1190 Rocket 4.5 06:32:19 10° NNW 06:37:11 41° WSW 06:42:04 10° S
Cosmos 2084 Rocket 4.3 06:33:03 10° NNW 06:37:22 52° ENE 06:41:38 10° SE
Cosmos 676 Rocket 4.0 06:32:56 10° NNW 06:38:10 74° WSW 06:43:26 10° S
STARLINK 3.9 06:34:22 10° NW 06:38:23 54° SW 06:42:22 10° SSE
STARLINK-36 4.0 06:34:35 10° NW 06:38:27 47° SW 06:42:18 10° SSE
Helios 1A Rocket 3.8 06:35:47 10° NNW 06:39:12 27° WNW 06:42:38 10° SW
SWAS 4.5 06:35:38 10° SSW 06:39:51 60° WNW 06:44:08 10° NNE
FENGYUN 3A 4.5 06:37:27 10° NNW 06:41:56 27° WNW 06:46:24 10° SW
Cosmos 1869 Rocket 4.0 06:38:20 10° SSW 06:42:22 39° W 06:46:26 10° N
STARLINK-35 4.2 06:39:36 10° WNW 06:43:24 41° SW 06:47:09 10° SSE
STARLINK-51 4.2 06:41:17 10° WNW 06:45:02 39° SW 06:48:47 10° SSE
